This is the latest recevied weather packets stored in our database for station/object VK2BLR. If no packets are shown the sender has not sent any weather packets the latest 10 day(s).
| Time | Temp. | Humidity | Pressure | Rain* | Wind** | Luminosity | Snow |
|---|---|---|---|---|---|---|---|
| 1777803793 | 18.89° C | 78% | 1016.9 hPa | 0 mm | - | - | - |
| 1777802893 | 19.44° C | 73% | 1016.9 hPa | 0 mm | - | - | - |
| 1777801992 | 20.56° C | 67% | 1016.2 hPa | 0 mm | - | - | - |
| 1777801091 | 21.67° C | 52% | 1016.1 hPa | 0 mm | - | - | - |
| 1777800193 | 21.11° C | 53% | 1015.9 hPa | 0 mm | - | - | - |
| 1777799292 | 21.11° C | 53% | 1015.8 hPa | 0 mm | - | - | - |
| 1777798391 | 21.67° C | 52% | 1015.7 hPa | 0 mm | - | - | - |
| 1777797491 | 21.67° C | 52% | 1015.6 hPa | 0 mm | - | - | - |
| 1777796593 | 22.22° C | 52% | 1015.4 hPa | 0 mm | - | - | - |
| 1777795693 | 22.22° C | 51% | 1015.5 hPa | 0 mm | - | - | - |
| 1777794791 | 22.78° C | 48% | 1015.5 hPa | 0 mm | - | - | - |
| 1777793892 | 22.78° C | 47% | 1015.1 hPa | 0 mm | - | - | - |
| 1777792993 | 23.33° C | 46% | 1015.1 hPa | 0 mm | - | - | - |
| 1777792091 | 23.33° C | 45% | 1015.1 hPa | 0 mm | - | - | - |
| 1777791192 | 23.89° C | 44% | 1015.1 hPa | 0 mm | - | - | - |
| 1777790292 | 24.44° C | 44% | 1015.1 hPa | 0 mm | - | - | - |
| 1777789391 | 24.44° C | 43% | 1015.2 hPa | 0 mm | - | - | - |
| 1777788492 | 25° C | 43% | 1015.2 hPa | 0 mm | - | - | - |
| 1777787592 | 25° C | 43% | 1015.2 hPa | 0 mm | - | - | - |
| 1777786692 | 25.56° C | 42% | 1015.5 hPa | 0 mm | - | - | - |
| 1777785791 | 25.56° C | 42% | 1015.6 hPa | 0 mm | - | - | - |
| 1777784892 | 25° C | 44% | 1015.6 hPa | 0 mm | - | - | - |
| 1777783992 | 24.44° C | 46% | 1015.7 hPa | 0 mm | - | - | - |
| 1777783092 | 23.89° C | 49% | 1015.8 hPa | 0 mm | - | - | - |
| 1777782191 | 25° C | 43% | 1015.8 hPa | 0 mm | - | - | - |
* Rain latest hour (hover to see other rain measurements)
** Current wind speed in m/s (hover to see current wind gust speed)